Hourly Data Report for December 29, 2018

TORONTO CITY
ONTARIO
Current Station Operator: ECCC - MSC

43°40'00.000" N
79°24'00.000" W
112.50 m
6158355
71508
XTO

Download Data

Hourly Data (December 2018)
Hourly Data Report for December 29, 2018
TIME
LST
Temp Definition
°C
Dew Point Definition
°C
Rel Hum Definition
%
Precip. Amount Definition
mm

Wind Dir Definition
10's deg

Wind Spd Definition
km/h
Visibility Definition
km
Stn Press Definition
kPa
Hmdx Definition


Wind Chill Definition


Weather Definition


00:00 5.1 -0.4 68 0.0 LegendMM LegendMM   99.54     LegendNANA
01:00 4.1 -0.7 71 0.0 LegendMM LegendMM   99.70     LegendNANA
02:00 3.8 -0.9 71 0.0 LegendMM LegendMM   99.81     LegendNANA
03:00 3.4 -0.9 73 0.0 LegendMM LegendMM   99.92     LegendNANA
04:00 2.6 -2.1 71 0.0 LegendMM LegendMM   100.01     LegendNANA
05:00 2.0 -3.5 67 0.0 LegendMM LegendMM   100.11     LegendNANA
06:00 0.2 -4.3 72 0.0 LegendMM LegendMM   100.27     LegendNANA
07:00 -0.8 -5.3 71 0.0 LegendMM LegendMM   100.43     LegendNANA
08:00 -1.6 -6.3 70 0.0 LegendMM LegendMM   100.60     LegendNANA
09:00 -2.3 -7.8 66 0.0 LegendMM LegendMM   100.73     LegendNANA
10:00 -2.9 -8.6 65 0.0 LegendMM LegendMM   100.85     LegendNANA
11:00 -3.2 -9.5 62 0.0 LegendMM LegendMM   100.87     LegendNANA
12:00 -2.4 -9.4 59 0.0 LegendMM LegendMM   100.85     LegendNANA
13:00 -3.0 -10.3 57 0.0 LegendMM LegendMM   100.89     LegendNANA
14:00 -2.9 -10.1 58 0.0 LegendMM LegendMM   100.97     LegendNANA
15:00 -3.1 -10.6 56 0.0 LegendMM LegendMM   100.97     LegendNANA
16:00 -3.1 -10.9 55 0.0 LegendMM LegendMM   101.01     LegendNANA
17:00 -3.7 -11.0 57 0.0 LegendMM LegendMM   101.06     LegendNANA
18:00 -4.3 -10.0 65 0.0 LegendMM LegendMM   101.12     LegendNANA
19:00 -5.1 -10.0 68 0.0 LegendMM LegendMM   101.12     LegendNANA
20:00 -5.6 -9.9 72 0.0 LegendMM LegendMM   101.08     LegendNANA
21:00 -5.4 -9.8 71 0.0 LegendMM LegendMM   101.04     LegendNANA
22:00 -5.6 -10.0 71 0.0 LegendMM LegendMM   100.87     LegendNANA
23:00 -5.3 -9.6 72 0.0 LegendMM LegendMM   100.82     LegendNANA

Notes on Data Quality.

Legend

  • E = Estimated
  • M = Missing
  • NA = Not Available*
  • [empty] = Indicates an unobserved value
Date modified: